User: anonymous   Login
Location: New Greens
(51.7702°N, 0.3379°W)
Time: 13:02:00
(UTC+00:00)
Language:

Tiangong - Orbit

View from above orbital plane
View from above orbital plane
View from above satellite
View from above satellite

Ground track
Ground track

The orbit data is extracted from the following two-line orbital elements,

1 48274U 21035A   21207.94969855  .00008807  00000-0  98891-4 0  9995
2 48274  41.4704  40.5067 0008664 244.8805 266.5363 15.62706470 13917
Epoch (UTC): 26 July 2021 22:47:33
Eccentricity: 0.0008664
inclination: 41.4704°
perigee height: 374 km
apogee height: 386 km
right ascension of ascending node: 40.5067°
argument of perigee: 244.8805°
revolutions per day: 15.62706470
mean anomaly at epoch: 266.5363°
orbit number at epoch: 1391

The dashed part of the orbit path shows where the satellite is in the earth's shadow,  

DLR